| time (UTC) | temp C | wind direction | speed KPH | gust KPH | rain 1hr cm | rain 24hr cm | rain mn cm | humidity % | barometer mb |
| 20260504235043 | 22 | 221 | 3.2 | 12.9 | 0.00 | 0.00 | 0.00 | 32 | 1013.7 |
| 20260504234549 | 22 | 288 | 6.4 | 16.1 | 0.00 | 0.00 | 0.00 | 31 | 1013.5 |
| 20260504234043 | 22 | 67 | 3.2 | 16.1 | 0.00 | 0.00 | 0.00 | 30 | 1013.7 |
| 20260504233543 | 22 | 177 | 4.8 | 16.1 | 0.00 | 0.00 | 0.00 | 31 | 1013.7 |
| 20260504233103 | 22 | 0 | 3.2 | 9.7 | 0.00 | 0.00 | 0.00 | 30 | 1013.7 |
| 20260504232542 | 23 | 103 | 4.8 | 12.9 | 0.00 | 0.00 | 0.00 | 30 | 1013.7 |
| 20260504232042 | 23 | 286 | 4.8 | 12.9 | 0.00 | 0.00 | 0.00 | 32 | 1013.8 |
| 20260504231550 | 22 | 224 | 3.2 | 9.7 | 0.00 | 0.00 | 0.00 | 30 | 1013.8 |
| 20260504231043 | 23 | 82 | 1.6 | 11.3 | 0.00 | 0.00 | 0.00 | 35 | 1013.8 |
| 20260504230546 | 23 | 0 | 3.2 | 14.5 | 0.00 | 0.00 | 0.00 | 31 | 1013.8 |
| 20260504230059 | 23 | 262 | 4.8 | 14.5 | 0.00 | 0.00 | 0.00 | 31 | 1013.9 |
| 20260504225543 | 22 | 236 | 4.8 | 9.7 | 0.00 | 0.00 | 0.00 | 32 | 1014.0 |
| 20260504225042 | 22 | 248 | 1.6 | 9.7 | 0.00 | 0.00 | 0.00 | 35 | 1013.8 |
| 20260504224552 | 22 | 345 | 3.2 | 9.7 | 0.00 | 0.00 | 0.00 | 34 | 1013.9 |
| 20260504224043 | 22 | 303 | 3.2 | 12.9 | 0.00 | 0.00 | 0.00 | 32 | 1014.0 |
| 20260504223543 | 23 | 299 | 3.2 | 12.9 | 0.00 | 0.00 | 0.00 | 32 | 1014.1 |
| 20260504223059 | 22 | 229 | 4.8 | 12.9 | 0.00 | 0.00 | 0.00 | 31 | 1014.2 |
| 20260504222543 | 23 | 172 | 8.0 | 12.9 | 0.00 | 0.00 | 0.00 | 29 | 1014.2 |
| 20260504222042 | 23 | 153 | 1.6 | 11.3 | 0.00 | 0.00 | 0.00 | 30 | 1014.2 |
| 20260504221552 | 23 | 0 | 3.2 | 11.3 | 0.00 | 0.00 | 0.00 | 31 | 1014.2 |
| 20260504221042 | 23 | 238 | 3.2 | 11.3 | 0.00 | 0.00 | 0.00 | 32 | 1014.2 |
| 20260504220542 | 23 | 114 | 6.4 | 11.3 | 0.00 | 0.00 | 0.00 | 30 | 1014.3 |
| 20260504220049 | 23 | 106 | 3.2 | 14.5 | 0.00 | 0.00 | 0.00 | 31 | 1014.3 |
| 20260504215543 | 23 | 148 | 4.8 | 14.5 | 0.00 | 0.00 | 0.00 | 29 | 1014.3 |
| 20260504215042 | 23 | 244 | 1.6 | 14.5 | 0.00 | 0.00 | 0.00 | 30 | 1014.2 |
| 20260504214606 | 22 | 162 | 3.2 | 14.5 | 0.00 | 0.00 | 0.00 | 33 | 1014.3 |
| 20260504214043 | 22 | 156 | 3.2 | 12.9 | 0.00 | 0.00 | 0.00 | 33 | 1014.4 |
| 20260504213543 | 22 | 252 | 3.2 | 12.9 | 0.00 | 0.00 | 0.00 | 33 | 1014.5 |
| 20260504213100 | 22 | 63 | 3.2 | 12.9 | 0.00 | 0.00 | 0.00 | 32 | 1014.5 |
| 20260504212543 | 22 | 243 | 3.2 | 12.9 | 0.00 | 0.00 | 0.00 | 30 | 1014.5 |
| 20260504212044 | 22 | 71 | 4.8 | 12.9 | 0.00 | 0.00 | 0.00 | 29 | 1014.6 |
| 20260504211555 | 23 | 108 | 3.2 | 12.9 | 0.00 | 0.00 | 0.00 | 34 | 1014.6 |
| 20260504211046 | 23 | 162 | 3.2 | 11.3 | 0.00 | 0.00 | 0.00 | 37 | 1014.6 |
| 20260504210542 | 22 | 161 | 1.6 | 11.3 | 0.00 | 0.00 | 0.00 | 31 | 1014.6 |
| 20260504210050 | 22 | 342 | 3.2 | 12.9 | 0.00 | 0.00 | 0.00 | 32 | 1014.6 |
| 20260504205544 | 22 | 226 | 4.8 | 12.9 | 0.00 | 0.00 | 0.00 | 31 | 1014.5 |
| 20260504205043 | 22 | 212 | 3.2 | 9.7 | 0.00 | 0.00 | 0.00 | 32 | 1014.6 |
| 20260504204552 | 22 | 111 | 4.8 | 14.5 | 0.00 | 0.00 | 0.00 | 32 | 1014.7 |
| 20260504204044 | 22 | 64 | 3.2 | 14.5 | 0.00 | 0.00 | 0.00 | 31 | 1014.7 |
| 20260504203546 | 22 | 53 | 1.6 | 11.3 | 0.00 | 0.00 | 0.00 | 36 | 1014.7 |
| 20260504203104 | 22 | 205 | 1.6 | 11.3 | 0.00 | 0.00 | 0.00 | 31 | 1014.7 |
| 20260504202543 | 22 | 217 | 1.6 | 11.3 | 0.00 | 0.00 | 0.00 | 33 | 1014.8 |
| 20260504202043 | 22 | 80 | 3.2 | 11.3 | 0.00 | 0.00 | 0.00 | 32 | 1014.8 |
| 20260504201613 | 22 | 295 | 1.6 | 11.3 | 0.00 | 0.00 | 0.00 | 31 | 1014.7 |
| 20260504201047 | 22 | 246 | 4.8 | 11.3 | 0.00 | 0.00 | 0.00 | 37 | 1014.7 |
| 20260504200543 | 21 | 81 | 3.2 | 11.3 | 0.00 | 0.00 | 0.00 | 33 | 1014.9 |
| 20260504200056 | 21 | 159 | 4.8 | 11.3 | 0.00 | 0.00 | 0.00 | 31 | 1014.9 |
| 20260504195542 | 22 | 0 | 1.6 | 12.9 | 0.00 | 0.00 | 0.00 | 32 | 1014.9 |
| 20260504195042 | 21 | 229 | 4.8 | 12.9 | 0.00 | 0.00 | 0.00 | 31 | 1014.9 |
| 20260504194553 | 22 | 91 | 3.2 | 9.7 | 0.00 | 0.00 | 0.00 | 32 | 1015.0 |
| 20260504194043 | 21 | 155 | 1.6 | 9.7 | 0.00 | 0.00 | 0.00 | 32 | 1015.0 |
| 20260504193543 | 21 | 125 | 3.2 | 17.7 | 0.00 | 0.00 | 0.00 | 35 | 1014.9 |
| 20260504193109 | 21 | 257 | 4.8 | 17.7 | 0.00 | 0.00 | 0.00 | 34 | 1015.0 |
| 20260504192543 | 21 | 127 | 4.8 | 17.7 | 0.00 | 0.00 | 0.00 | 35 | 1015.1 |
| 20260504192042 | 21 | 96 | 1.6 | 17.7 | 0.00 | 0.00 | 0.00 | 34 | 1015.0 |
| 20260504191559 | 21 | 208 | 1.6 | 14.5 | 0.00 | 0.00 | 0.00 | 34 | 1015.1 |
| 20260504191043 | 22 | 64 | 3.2 | 17.7 | 0.00 | 0.00 | 0.00 | 33 | 1015.1 |
| 20260504190544 | 21 | 237 | 6.4 | 17.7 | 0.00 | 0.00 | 0.00 | 34 | 1015.0 |
| 20260504190113 | 21 | 240 | 4.8 | 11.3 | 0.00 | 0.00 | 0.00 | 36 | 1015.1 |
| 20260504185545 | 21 | 67 | 1.6 | 12.9 | 0.00 | 0.00 | 0.00 | 33 | 1015.1 |
| 20260504185042 | 21 | 136 | 3.2 | 12.9 | 0.00 | 0.00 | 0.00 | 34 | 1015.2 |
| 20260504184608 | 21 | 216 | 4.8 | 14.5 | 0.00 | 0.00 | 0.00 | 35 | 1015.3 |
| 20260504184043 | 20 | 179 | 6.4 | 14.5 | 0.00 | 0.00 | 0.00 | 35 | 1015.3 |
| 20260504183542 | 20 | 262 | 6.4 | 14.5 | 0.00 | 0.00 | 0.00 | 35 | 1015.3 |
| 20260504183050 | 20 | 147 | 3.2 | 12.9 | 0.00 | 0.00 | 0.00 | 36 | 1015.2 |
| 20260504182543 | 20 | 129 | 4.8 | 12.9 | 0.00 | 0.00 | 0.00 | 33 | 1015.3 |
| 20260504182042 | 20 | 94 | 3.2 | 12.9 | 0.00 | 0.00 | 0.00 | 37 | 1015.2 |
| 20260504181551 | 20 | 228 | 6.4 | 24.1 | 0.00 | 0.00 | 0.00 | 40 | 1015.2 |
| 20260504181043 | 20 | 72 | 4.8 | 24.1 | 0.00 | 0.00 | 0.00 | 38 | 1015.2 |
| 20260504180543 | 20 | 303 | 3.2 | 17.7 | 0.00 | 0.00 | 0.00 | 36 | 1015.2 |
| 20260504180059 | 20 | 308 | 4.8 | 16.1 | 0.00 | 0.00 | 0.00 | 34 | 1015.3 |
| 20260504175544 | 20 | 99 | 3.2 | 16.1 | 0.00 | 0.00 | 0.00 | 35 | 1015.2 |
| 20260504175043 | 20 | 198 | 4.8 | 16.1 | 0.00 | 0.00 | 0.00 | 36 | 1015.2 |
| 20260504174555 | 20 | 153 | 4.8 | 16.1 | 0.00 | 0.00 | 0.00 | 35 | 1015.2 |
| 20260504174043 | 20 | 124 | 6.4 | 16.1 | 0.00 | 0.00 | 0.00 | 36 | 1015.2 |
| 20260504173542 | 20 | 349 | 6.4 | 20.9 | 0.00 | 0.00 | 0.00 | 36 | 1015.1 |
| 20260504173051 | 20 | 228 | 6.4 | 20.9 | 0.00 | 0.00 | 0.00 | 34 | 1015.1 |
| 20260504172542 | 20 | 327 | 3.2 | 16.1 | 0.00 | 0.00 | 0.00 | 35 | 1015.1 |
| 20260504172042 | 20 | 263 | 3.2 | 14.5 | 0.00 | 0.00 | 0.00 | 34 | 1015.0 |
| 20260504171557 | 19 | 335 | 4.8 | 14.5 | 0.00 | 0.00 | 0.00 | 38 | 1015.1 |
| 20260504171042 | 19 | 172 | 4.8 | 16.1 | 0.00 | 0.00 | 0.00 | 37 | 1015.1 |
| 20260504170544 | 19 | 297 | 4.8 | 16.1 | 0.00 | 0.00 | 0.00 | 36 | 1015.0 |
| 20260504151043 | 16 | 86 | 6.4 | 16.1 | 0.00 | 0.00 | 0.00 | 44 | 1015.0 |
| 20260504150542 | 16 | 346 | 6.4 | 16.1 | 0.00 | 0.00 | 0.00 | 48 | 1014.9 |
| 20260504141042 | 7 | 25 | 0.0 | 1.6 | 0.00 | 0.00 | 0.00 | 88 | 1014.7 |
| 20260504140542 | 7 | 0 | 0.0 | 1.6 | 0.00 | 0.00 | 0.00 | 88 | 1014.7 |
| 20260504140108 | 7 | 34 | 0.0 | 3.2 | 0.00 | 0.00 | 0.00 | 88 | 1014.6 |
| 20260504130543 | 5 | 0 | 0.0 | 1.6 | 0.00 | 0.00 | 0.00 | 92 | 1014.0 |
| 20260504120109 | 4 | 0 | 0.0 | 0.0 | 0.00 | 0.00 | 0.00 | 91 | 1013.8 |
| 20260504110547 | 5 | 0 | 0.0 | 1.6 | 0.00 | 0.00 | 0.00 | 91 | 1013.7 |
| 20260504100547 | 5 | 0 | 0.0 | 0.0 | 0.00 | 0.00 | 0.00 | 88 | 1013.8 |
| 20260504081549 | 7 | 0 | 0.0 | 1.6 | 0.00 | 0.00 | 0.00 | 85 | 1013.5 |
| 20260504081042 | 7 | 0 | 0.0 | 1.6 | 0.00 | 0.00 | 0.00 | 84 | 1013.5 |
| 20260504080542 | 7 | 0 | 0.0 | 1.6 | 0.00 | 0.00 | 0.00 | 84 | 1013.5 |
| 20260504050542 | 11 | 0 | 0.0 | 1.6 | 0.00 | 0.00 | 0.00 | 75 | 1013.4 |
| 20260504045542 | 11 | 0 | 0.0 | 1.6 | 0.00 | 0.00 | 0.00 | 74 | 1013.5 |
| 20260504045042 | 11 | 0 | 0.0 | 1.6 | 0.00 | 0.00 | 0.00 | 74 | 1013.5 |
| 20260504044552 | 11 | 0 | 0.0 | 1.6 | 0.00 | 0.00 | 0.00 | 72 | 1013.4 |
| 20260504044043 | 11 | 0 | 0.0 | 1.6 | 0.00 | 0.00 | 0.00 | 73 | 1013.3 |
| 20260504043543 | 11 | 0 | 0.0 | 1.6 | 0.00 | 0.00 | 0.00 | 72 | 1013.3 |
| 20260504043053 | 12 | 345 | 0.0 | 0.0 | 0.00 | 0.00 | 0.00 | 73 | 1013.3 |
| 20260504042542 | 12 | 345 | 0.0 | 1.6 | 0.00 | 0.00 | 0.00 | 70 | 1013.4 |
| 20260504042042 | 12 | 0 | 0.0 | 1.6 | 0.00 | 0.00 | 0.00 | 69 | 1013.3 |
| 20260504041556 | 12 | 0 | 0.0 | 1.6 | 0.00 | 0.00 | 0.00 | 68 | 1013.2 |
| 20260504041042 | 12 | 0 | 0.0 | 1.6 | 0.00 | 0.00 | 0.00 | 67 | 1013.1 |
| 20260504040544 | 12 | 0 | 0.0 | 1.6 | 0.00 | 0.00 | 0.00 | 66 | 1013.2 |
| 20260504040058 | 12 | 345 | 0.0 | 1.6 | 0.00 | 0.00 | 0.00 | 66 | 1013.1 |
| 20260504035542 | 13 | 345 | 0.0 | 1.6 | 0.00 | 0.00 | 0.00 | 66 | 1013.1 |
| 20260504035042 | 13 | 0 | 0.0 | 1.6 | 0.00 | 0.00 | 0.00 | 66 | 1013.1 |
| 20260504034553 | 13 | 0 | 0.0 | 1.6 | 0.00 | 0.00 | 0.00 | 66 | 1013.0 |
| 20260504034045 | 13 | 0 | 0.0 | 1.6 | 0.00 | 0.00 | 0.00 | 65 | 1013.0 |
| 20260504033543 | 13 | 0 | 0.0 | 1.6 | 0.00 | 0.00 | 0.00 | 65 | 1013.0 |
| 20260504033054 | 14 | 0 | 0.0 | 1.6 | 0.00 | 0.00 | 0.00 | 64 | 1013.0 |
| 20260504032543 | 14 | 345 | 0.0 | 1.6 | 0.00 | 0.00 | 0.00 | 62 | 1012.8 |
| 20260504032043 | 14 | 0 | 0.0 | 1.6 | 0.00 | 0.00 | 0.00 | 62 | 1012.8 |
| 20260504031601 | 15 | 0 | 0.0 | 1.6 | 0.00 | 0.00 | 0.00 | 61 | 1012.8 |
| 20260504031045 | 15 | 0 | 0.0 | 1.6 | 0.00 | 0.00 | 0.00 | 62 | 1012.8 |
| 20260504030543 | 15 | 0 | 0.0 | 1.6 | 0.00 | 0.00 | 0.00 | 61 | 1012.8 |
| 20260504030052 | 15 | 338 | 0.0 | 1.6 | 0.00 | 0.00 | 0.00 | 59 | 1012.8 |
| 20260504025542 | 16 | 338 | 0.0 | 1.6 | 0.00 | 0.00 | 0.00 | 59 | 1012.8 |
| 20260504025046 | 16 | 0 | 0.0 | 1.6 | 0.00 | 0.00 | 0.00 | 58 | 1012.8 |
| 20260504024556 | 16 | 0 | 0.0 | 1.6 | 0.00 | 0.00 | 0.00 | 57 | 1012.8 |
| 20260504024042 | 17 | 336 | 0.0 | 1.6 | 0.00 | 0.00 | 0.00 | 55 | 1012.7 |
| 20260504023545 | 17 | 336 | 0.0 | 1.6 | 0.00 | 0.00 | 0.00 | 56 | 1012.8 |
| 20260504023050 | 17 | 0 | 0.0 | 0.0 | 0.00 | 0.00 | 0.00 | 55 | 1012.8 |
| 20260504022542 | 17 | 320 | 0.0 | 1.6 | 0.00 | 0.00 | 0.00 | 54 | 1012.8 |
| 20260504022043 | 17 | 319 | 0.0 | 1.6 | 0.00 | 0.00 | 0.00 | 52 | 1012.8 |
| 20260504021555 | 18 | 316 | 0.0 | 1.6 | 0.00 | 0.00 | 0.00 | 50 | 1012.8 |
| 20260504021042 | 18 | 314 | 0.0 | 1.6 | 0.00 | 0.00 | 0.00 | 50 | 1012.8 |
| 20260504020542 | 18 | 314 | 0.0 | 3.2 | 0.00 | 0.00 | 0.00 | 48 | 1012.8 |
| 20260504020052 | 18 | 311 | 0.0 | 3.2 | 0.00 | 0.00 | 0.00 | 47 | 1012.8 |
| 20260504015543 | 18 | 311 | 1.6 | 3.2 | 0.00 | 0.00 | 0.00 | 46 | 1012.8 |
| 20260504015043 | 18 | 302 | 0.0 | 3.2 | 0.00 | 0.00 | 0.00 | 46 | 1012.8 |
| 20260504014554 | 18 | 300 | 1.6 | 3.2 | 0.00 | 0.00 | 0.00 | 48 | 1012.8 |
| 20260504014042 | 19 | 293 | 0.0 | 1.6 | 0.00 | 0.00 | 0.00 | 45 | 1012.9 |
| 20260504013542 | 19 | 290 | 0.0 | 1.6 | 0.00 | 0.00 | 0.00 | 43 | 1012.8 |
| 20260504013103 | 19 | 0 | 1.6 | 1.6 | 0.00 | 0.00 | 0.00 | 42 | 1013.0 |
| 20260504012544 | 20 | 323 | 0.0 | 3.2 | 0.00 | 0.00 | 0.00 | 42 | 1013.0 |
| 20260504012044 | 20 | 0 | 0.0 | 3.2 | 0.00 | 0.00 | 0.00 | 40 | 1013.0 |
| 20260504011552 | 20 | 302 | 1.6 | 3.2 | 0.00 | 0.00 | 0.00 | 42 | 1013.0 |
| 20260504011042 | 20 | 309 | 3.2 | 4.8 | 0.00 | 0.00 | 0.00 | 41 | 1013.1 |
| 20260504010541 | 20 | 285 | 3.2 | 4.8 | 0.00 | 0.00 | 0.00 | 39 | 1013.1 |
| 20260504010055 | 20 | 269 | 0.0 | 3.2 | 0.00 | 0.00 | 0.00 | 38 | 1013.1 |
| 20260504005544 | 21 | 282 | 0.0 | 1.6 | 0.00 | 0.00 | 0.00 | 38 | 1013.2 |
| 20260504005043 | 21 | 282 | 1.6 | 3.2 | 0.00 | 0.00 | 0.00 | 37 | 1013.3 |
| 20260504004601 | 21 | 281 | 0.0 | 3.2 | 0.00 | 0.00 | 0.00 | 37 | 1013.4 |
| 20260504004043 | 21 | 296 | 1.6 | 3.2 | 0.00 | 0.00 | 0.00 | 39 | 1013.4 |
| 20260504003544 | 21 | 296 | 1.6 | 9.7 | 0.00 | 0.00 | 0.00 | 34 | 1013.4 |
| 20260504003048 | 22 | 301 | 1.6 | 9.7 | 0.00 | 0.00 | 0.00 | 34 | 1013.5 |
| 20260504002542 | 22 | 293 | 4.8 | 9.7 | 0.00 | 0.00 | 0.00 | 34 | 1013.6 |
| 20260504002045 | 21 | 263 | 1.6 | 3.2 | 0.00 | 0.00 | 0.00 | 36 | 1013.7 |
| 20260504001618 | 22 | 281 | 1.6 | 3.2 | 0.00 | 0.00 | 0.00 | 37 | 1013.7 |
| 20260504001043 | 22 | 278 | 0.0 | 3.2 | 0.00 | 0.00 | 0.00 | 35 | 1013.7 |
| 20260504000543 | 22 | 278 | 1.6 | 3.2 | 0.00 | 0.00 | 0.00 | 35 | 1013.6 |
| 20260504000056 | 22 | 300 | 1.6 | 3.2 | 0.00 | 0.00 | 0.00 | 34 | 1013.6 |
| 20260503235543 | 23 | 308 | 0.0 | 6.4 | 0.00 | 0.00 | 0.00 | 35 | 1013.7 |